{"data":{"norad_id":65173,"epoch":"2026-05-25T03:23:03.961248Z","epoch_age_seconds":66303,"freshness":"FRESH","line1":"1 65173U 25174K   26145.14101807  .00000019  00000+0  96989-5 0  9996","line2":"2 65173  86.4923 259.7440 0001923  95.7960 264.3393 13.24405562 37707","mean_motion":13.24405562,"eccentricity":0.0001923,"inclination_deg":86.4923,"raan_deg":259.744,"arg_perigee_deg":95.796,"mean_anomaly_deg":264.3393,"bstar":9.6989e-6,"rev_number":3770,"period_min":108.72802420321,"perigee_km":1166.487932775,"apogee_km":1169.3901536212,"semimajor_km":7546.0760431981,"source":"CELESTRAK","updated_at":"2026-05-25T13:38:05.175330Z"}}